Time,TemperatureF,DewpointF,PressureIn,WindDirection,WindDirectionDegrees,WindSpeedMPH,WindSpeedGustMPH,Humidity,HourlyPrecipIn,Conditions,Clouds,dailyrainin,SoftwareType,DateUTC
2013-03-28 00:00:00,46.6,26.4,30.24,NW,315,2.0,7.0,45,0.00,,,0.00,WeatherCatV1.11B39,2013-03-28 04:00:00,
2013-03-28 00:01:00,46.5,25.8,30.24,NW,323,0.0,9.0,44,0.00,,,0.00,WeatherCatV1.11B39,2013-03-28 04:01:00,
2013-03-28 00:06:00,46.4,26.2,30.24,WNW,288,4.0,9.0,45,0.00,,,0.00,WeatherCatV1.11B39,2013-03-28 04:06:00,
2013-03-28 00:11:00,46.2,26.0,30.24,WNW,299,1.0,7.0,45,0.00,,,0.00,WeatherCatV1.11B39,2013-03-28 04:11:00,
2013-03-28 00:16:00,46.1,26.0,30.24,NW,323,5.0,11.0,45,0.00,,,0.00,WeatherCatV1.11B39,2013-03-28 04:16:00,
2013-03-28 00:21:00,45.9,25.8,30.24,NW,317,6.0,10.0,45,0.00,,,0.00,WeatherCatV1.11B39,2013-03-28 04:21:00,
2013-03-28 00:26:00,45.8,26.2,30.24,WNW,300,9.0,9.0,46,0.00,,,0.00,WeatherCatV1.11B39,2013-03-28 04:26:00,
2013-03-28 00:31:00,45.7,25.6,30.24,WNW,298,6.0,13.0,45,0.00,,,0.00,WeatherCatV1.11B39,2013-03-28 04:31:00,
2013-03-28 00:36:00,45.8,26.2,30.24,NW,325,5.0,10.0,46,0.00,,,0.00,WeatherCatV1.11B39,2013-03-28 04:36:00,
2013-03-28 00:41:00,45.8,25.7,30.24,WNW,298,1.0,8.0,45,0.00,,,0.00,WeatherCatV1.11B39,2013-03-28 04:41:00,
2013-03-28 00:46:00,45.8,25.7,30.24,NW,305,5.0,10.0,45,0.00,,,0.00,WeatherCatV1.11B39,2013-03-28 04:46:00,
2013-03-28 00:51:00,45.7,26.1,30.24,NW,319,7.0,8.0,46,0.00,,,0.00,WeatherCatV1.11B39,2013-03-28 04:51:00,
2013-03-28 00:56:00,45.7,25.6,30.24,NNW,328,0.0,13.0,45,0.00,,,0.00,WeatherCatV1.11B39,2013-03-28 04:56:00,
2013-03-28 01:01:00,45.6,25.5,30.23,WNW,302,7.0,8.0,45,0.00,,,0.00,WeatherCatV1.11B39,2013-03-28 05:01:00,
2013-03-28 01:06:00,45.6,25.5,30.23,WNW,298,5.0,12.0,45,0.00,,,0.00,WeatherCatV1.11B39,2013-03-28 05:06:00,
2013-03-28 01:11:00,45.5,25.4,30.23,NW,325,4.0,7.0,45,0.00,,,0.00,WeatherCatV1.11B39,2013-03-28 05:11:00,
2013-03-28 01:16:00,45.4,25.3,30.23,NW,304,3.0,6.0,45,0.00,,,0.00,WeatherCatV1.11B39,2013-03-28 05:16:00,
2013-03-28 01:21:00,45.3,25.2,30.23,NW,306,5.0,8.0,45,0.00,,,0.00,WeatherCatV1.11B39,2013-03-28 05:21:00,
2013-03-28 01:26:00,45.3,25.2,30.23,NW,325,7.0,12.0,45,0.00,,,0.00,WeatherCatV1.11B39,2013-03-28 05:26:00,
2013-03-28 01:31:00,45.3,25.2,30.24,NNW,329,3.0,7.0,45,0.00,,,0.00,WeatherCatV1.11B39,2013-03-28 05:31:00,
2013-03-28 01:36:00,45.0,25.5,30.24,NNW,336,4.0,7.0,46,0.00,,,0.00,WeatherCatV1.11B39,2013-03-28 05:36:00,
2013-03-28 01:41:00,44.8,25.8,30.23,NW,304,8.0,11.0,47,0.00,,,0.00,WeatherCatV1.11B39,2013-03-28 05:41:00,
2013-03-28 01:46:00,44.6,25.6,30.24,WNW,286,6.0,7.0,47,0.00,,,0.00,WeatherCatV1.11B39,2013-03-28 05:46:00,
2013-03-28 01:51:00,44.3,25.4,30.24,NW,325,1.0,5.0,47,0.00,,,0.00,WeatherCatV1.11B39,2013-03-28 05:51:00,
2013-03-28 01:56:00,44.0,25.6,30.24,NW,323,2.0,7.0,48,0.00,,,0.00,WeatherCatV1.11B39,2013-03-28 05:56:00,
2013-03-28 02:01:00,43.7,25.8,30.24,NNW,343,1.0,3.0,49,0.00,,,0.00,WeatherCatV1.11B39,2013-03-28 06:01:00,
2013-03-28 02:06:00,43.3,25.9,30.24,NNW,331,6.0,8.0,50,0.00,,,0.00,WeatherCatV1.11B39,2013-03-28 06:06:00,
2013-03-28 02:11:00,43.0,25.6,30.24,NNW,338,6.0,7.0,50,0.00,,,0.00,WeatherCatV1.11B39,2013-03-28 06:11:00,
2013-03-28 02:16:00,42.8,25.9,30.24,NW,315,6.0,8.0,51,0.00,,,0.00,WeatherCatV1.11B39,2013-03-28 06:16:00,
2013-03-28 02:21:00,42.6,25.8,30.24,NNW,344,4.0,6.0,51,0.00,,,0.00,WeatherCatV1.11B39,2013-03-28 06:21:00,
2013-03-28 02:26:00,42.4,26.0,30.24,NNW,331,4.0,8.0,52,0.00,,,0.00,WeatherCatV1.11B39,2013-03-28 06:26:00,
2013-03-28 02:31:00,42.1,26.2,30.24,North,0,6.0,7.0,53,0.00,,,0.00,WeatherCatV1.11B39,2013-03-28 06:31:00,
2013-03-28 02:37:00,41.8,26.4,30.24,NNE,26,0.0,8.0,54,0.00,,,0.00,WeatherCatV1.11B39,2013-03-28 06:37:00,
2013-03-28 02:42:00,41.8,26.4,30.24,North,5,6.0,6.0,54,0.00,,,0.00,WeatherCatV1.11B39,2013-03-28 06:42:00,
2013-03-28 02:47:00,41.9,26.5,30.25,North,11,2.0,4.0,54,0.00,,,0.00,WeatherCatV1.11B39,2013-03-28 06:47:00,
2013-03-28 02:52:00,41.9,26.5,30.25,NNE,25,5.0,9.0,54,0.00,,,0.00,WeatherCatV1.11B39,2013-03-28 06:52:00,
2013-03-28 02:57:00,41.9,26.5,30.25,NNE,29,7.0,7.0,54,0.00,,,0.00,WeatherCatV1.11B39,2013-03-28 06:57:00,
2013-03-28 03:02:00,41.9,26.5,30.25,North,5,0.0,7.0,54,0.00,,,0.00,WeatherCatV1.11B39,2013-03-28 07:02:00,
2013-03-28 03:07:00,41.8,26.4,30.25,NNE,32,4.0,5.0,54,0.00,,,0.00,WeatherCatV1.11B39,2013-03-28 07:07:00,
2013-03-28 03:12:00,41.5,26.1,30.25,NNE,21,5.0,8.0,54,0.00,,,0.00,WeatherCatV1.11B39,2013-03-28 07:12:00,
2013-03-28 03:17:00,41.3,26.4,30.26,NE,35,0.0,6.0,55,0.00,,,0.00,WeatherCatV1.11B39,2013-03-28 07:17:00,
2013-03-28 03:22:00,41.0,26.5,30.25,North,9,1.0,6.0,56,0.00,,,0.00,WeatherCatV1.11B39,2013-03-28 07:22:00,
2013-03-28 03:27:00,40.6,26.6,30.25,NNE,29,0.0,8.0,57,0.00,,,0.00,WeatherCatV1.11B39,2013-03-28 07:27:00,
2013-03-28 03:32:00,40.3,26.3,30.25,North,9,6.0,6.0,57,0.00,,,0.00,WeatherCatV1.11B39,2013-03-28 07:32:00,
2013-03-28 03:37:00,40.0,26.0,30.25,NNW,339,2.0,7.0,57,0.00,,,0.00,WeatherCatV1.11B39,2013-03-28 07:37:00,
2013-03-28 03:42:00,39.8,26.2,30.25,NNE,27,0.0,4.0,58,0.00,,,0.00,WeatherCatV1.11B39,2013-03-28 07:42:00,
2013-03-28 03:47:00,39.7,26.1,30.25,NE,37,0.0,5.0,58,0.00,,,0.00,WeatherCatV1.11B39,2013-03-28 07:47:00,
2013-03-28 03:52:00,39.5,26.0,30.25,NE,35,0.0,4.0,58,0.00,,,0.00,WeatherCatV1.11B39,2013-03-28 07:52:00,
2013-03-28 03:57:00,39.2,26.1,30.26,NE,34,0.0,4.0,59,0.00,,,0.00,WeatherCatV1.11B39,2013-03-28 07:57:00,
2013-03-28 04:02:00,38.9,25.8,30.26,NE,34,0.0,3.0,59,0.00,,,0.00,WeatherCatV1.11B39,2013-03-28 08:02:00,
2013-03-28 04:07:00,38.7,25.6,30.26,NE,39,3.0,3.0,59,0.00,,,0.00,WeatherCatV1.11B39,2013-03-28 08:07:00,
2013-03-28 04:12:00,38.4,25.7,30.26,NE,39,0.0,1.0,60,0.00,,,0.00,WeatherCatV1.11B39,2013-03-28 08:12:00,
2013-03-28 04:17:00,38.1,26.2,30.26,NE,39,0.0,0.0,62,0.00,,,0.00,WeatherCatV1.11B39,2013-03-28 08:17:00,
2013-03-28 04:22:00,37.7,26.3,30.26,NE,39,1.0,2.0,63,0.00,,,0.00,WeatherCatV1.11B39,2013-03-28 08:22:00,
2013-03-28 04:27:00,37.2,26.2,30.26,NE,39,0.0,2.0,64,0.00,,,0.00,WeatherCatV1.11B39,2013-03-28 08:27:00,
2013-03-28 04:32:00,36.8,25.8,30.26,NE,39,0.0,1.0,64,0.00,,,0.00,WeatherCatV1.11B39,2013-03-28 08:32:00,
2013-03-28 04:37:00,36.4,26.1,30.26,NE,39,0.0,3.0,66,0.00,,,0.00,WeatherCatV1.11B39,2013-03-28 08:37:00,
2013-03-28 04:42:00,35.9,26.0,30.26,NE,39,0.0,1.0,67,0.00,,,0.00,WeatherCatV1.11B39,2013-03-28 08:42:00,
2013-03-28 04:47:00,35.6,25.7,30.26,NE,39,0.0,4.0,67,0.00,,,0.00,WeatherCatV1.11B39,2013-03-28 08:47:00,
2013-03-28 04:52:00,35.3,25.8,30.26,NE,39,0.0,0.0,68,0.00,,,0.00,WeatherCatV1.11B39,2013-03-28 08:52:00,
2013-03-28 04:57:00,35.1,26.0,30.26,NE,39,0.0,0.0,69,0.00,,,0.00,WeatherCatV1.11B39,2013-03-28 08:57:00,
2013-03-28 05:02:00,34.9,25.4,30.26,NE,39,0.0,0.0,68,0.00,,,0.00,WeatherCatV1.11B39,2013-03-28 09:02:00,
2013-03-28 05:07:00,34.6,25.5,30.26,NE,39,0.0,0.0,69,0.00,,,0.00,WeatherCatV1.11B39,2013-03-28 09:07:00,
2013-03-28 05:12:00,34.4,25.0,30.26,NE,39,0.0,0.0,68,0.00,,,0.00,WeatherCatV1.11B39,2013-03-28 09:12:00,
2013-03-28 05:17:00,34.3,25.2,30.27,NE,39,0.0,0.0,69,0.00,,,0.00,WeatherCatV1.11B39,2013-03-28 09:17:00,
2013-03-28 05:22:00,34.1,25.4,30.27,NE,39,0.0,1.0,70,0.00,,,0.00,WeatherCatV1.11B39,2013-03-28 09:22:00,
2013-03-28 05:27:00,33.9,25.2,30.27,NE,39,0.0,0.0,70,0.00,,,0.00,WeatherCatV1.11B39,2013-03-28 09:27:00,
2013-03-28 05:32:00,33.7,25.0,30.27,NE,39,0.0,0.0,70,0.00,,,0.00,WeatherCatV1.11B39,2013-03-28 09:32:00,
2013-03-28 05:37:00,33.5,25.1,30.27,NE,39,0.0,0.0,71,0.00,,,0.00,WeatherCatV1.11B39,2013-03-28 09:37:00,
2013-03-28 05:42:00,33.4,25.0,30.27,NE,39,0.0,0.0,71,0.00,,,0.00,WeatherCatV1.11B39,2013-03-28 09:42:00,
2013-03-28 05:47:00,33.2,24.8,30.27,NE,39,0.0,0.0,71,0.00,,,0.00,WeatherCatV1.11B39,2013-03-28 09:47:00,
2013-03-28 05:53:00,33.1,25.1,30.27,NE,39,0.0,0.0,72,0.00,,,0.00,WeatherCatV1.11B39,2013-03-28 09:53:00,
2013-03-28 05:58:00,33.0,25.3,30.27,NE,39,0.0,0.0,73,0.00,,,0.00,WeatherCatV1.11B39,2013-03-28 09:58:00,
2013-03-28 06:03:00,32.9,25.2,30.28,NE,39,0.0,0.0,73,0.00,,,0.00,WeatherCatV1.11B39,2013-03-28 10:03:00,
2013-03-28 06:08:00,32.8,25.1,30.28,NE,39,0.0,0.0,73,0.00,,,0.00,WeatherCatV1.11B39,2013-03-28 10:08:00,
2013-03-28 06:13:00,32.7,25.3,30.28,NE,39,0.0,0.0,74,0.00,,,0.00,WeatherCatV1.11B39,2013-03-28 10:13:00,
2013-03-28 06:18:00,32.6,25.2,30.28,NE,39,0.0,0.0,74,0.00,,,0.00,WeatherCatV1.11B39,2013-03-28 10:18:00,
2013-03-28 06:23:00,32.5,25.2,30.29,NE,39,0.0,0.0,74,0.00,,,0.00,WeatherCatV1.11B39,2013-03-28 10:23:00,
2013-03-28 06:28:00,32.3,25.0,30.29,NE,39,0.0,0.0,74,0.00,,,0.00,WeatherCatV1.11B39,2013-03-28 10:28:00,
2013-03-28 06:33:00,32.2,25.2,30.29,NE,39,0.0,1.0,75,0.00,,,0.00,WeatherCatV1.11B39,2013-03-28 10:33:00,
2013-03-28 06:38:00,32.1,25.1,30.29,NE,39,0.0,0.0,75,0.00,,,0.00,WeatherCatV1.11B39,2013-03-28 10:38:00,
2013-03-28 06:43:00,32.0,25.0,30.29,NE,39,0.0,0.0,75,0.00,,,0.00,WeatherCatV1.11B39,2013-03-28 10:43:00,
2013-03-28 06:48:00,31.9,24.9,30.29,NE,39,0.0,0.0,75,0.00,,,0.00,WeatherCatV1.11B39,2013-03-28 10:48:00,
2013-03-28 06:53:00,31.8,25.1,30.29,NE,39,0.0,1.0,76,0.00,,,0.00,WeatherCatV1.11B39,2013-03-28 10:53:00,
2013-03-28 06:58:00,31.7,25.0,30.29,NE,39,0.0,1.0,76,0.00,,,0.00,WeatherCatV1.11B39,2013-03-28 10:58:00,
2013-03-28 07:03:00,31.6,24.6,30.30,NE,39,0.0,0.0,75,0.00,,,0.00,WeatherCatV1.11B39,2013-03-28 11:03:00,
2013-03-28 07:08:00,31.5,24.5,30.30,NE,39,0.0,0.0,75,0.00,,,0.00,WeatherCatV1.11B39,2013-03-28 11:08:00,
2013-03-28 07:13:00,31.5,24.8,30.30,NE,39,0.0,0.0,76,0.00,,,0.00,WeatherCatV1.11B39,2013-03-28 11:13:00,
2013-03-28 07:18:00,31.4,24.7,30.30,NE,39,0.0,2.0,76,0.00,,,0.00,WeatherCatV1.11B39,2013-03-28 11:18:00,
2013-03-28 07:23:00,31.3,24.6,30.31,NE,39,0.0,1.0,76,0.00,,,0.00,WeatherCatV1.11B39,2013-03-28 11:23:00,
2013-03-28 07:28:00,31.2,24.8,30.30,NE,39,0.0,0.0,77,0.00,,,0.00,WeatherCatV1.11B39,2013-03-28 11:28:00,
2013-03-28 07:33:00,31.2,24.8,30.31,NE,39,0.0,0.0,77,0.00,,,0.00,WeatherCatV1.11B39,2013-03-28 11:33:00,
2013-03-28 07:38:00,31.2,24.8,30.31,NE,39,0.0,0.0,77,0.00,,,0.00,WeatherCatV1.11B39,2013-03-28 11:38:00,
2013-03-28 07:43:00,31.2,25.2,30.31,NE,39,0.0,0.0,78,0.00,,,0.00,WeatherCatV1.11B39,2013-03-28 11:43:00,
2013-03-28 07:48:00,31.2,25.2,30.31,NE,39,0.0,0.0,78,0.00,,,0.00,WeatherCatV1.11B39,2013-03-28 11:48:00,
2013-03-28 07:53:00,31.3,25.6,30.32,NE,39,0.0,0.0,79,0.00,,,0.00,WeatherCatV1.11B39,2013-03-28 11:53:00,
2013-03-28 07:58:00,31.4,25.7,30.32,NE,39,0.0,0.0,79,0.00,,,0.00,WeatherCatV1.11B39,2013-03-28 11:58:00,
2013-03-28 08:03:00,31.6,25.8,30.32,NE,39,0.0,0.0,79,0.00,,,0.00,WeatherCatV1.11B39,2013-03-28 12:03:00,
2013-03-28 08:08:00,31.9,26.4,30.32,NE,39,0.0,0.0,80,0.00,,,0.00,WeatherCatV1.11B39,2013-03-28 12:08:00,
2013-03-28 08:13:00,32.6,27.1,30.32,NE,39,0.0,0.0,80,0.00,,,0.00,WeatherCatV1.11B39,2013-03-28 12:13:00,
2013-03-28 08:18:00,33.5,27.7,30.32,NE,39,0.0,0.0,79,0.00,,,0.00,WeatherCatV1.11B39,2013-03-28 12:18:00,
2013-03-28 08:23:00,34.9,29.1,30.32,NE,39,0.0,0.0,79,0.00,,,0.00,WeatherCatV1.11B39,2013-03-28 12:23:00,
2013-03-28 08:28:00,36.2,29.4,30.32,NE,39,0.0,0.0,76,0.00,,,0.00,WeatherCatV1.11B39,2013-03-28 12:28:00,
2013-03-28 08:33:00,37.3,29.8,30.33,NE,39,0.0,0.0,74,0.00,,,0.00,WeatherCatV1.11B39,2013-03-28 12:33:00,
2013-03-28 08:38:00,38.2,30.3,30.33,NE,39,0.0,0.0,73,0.00,,,0.00,WeatherCatV1.11B39,2013-03-28 12:38:00,
2013-03-28 08:43:00,39.3,30.3,30.33,NE,39,0.0,2.0,70,0.00,,,0.00,WeatherCatV1.11B39,2013-03-28 12:43:00,
2013-03-28 08:48:00,40.0,29.2,30.33,NE,39,2.0,2.0,65,0.00,,,0.00,WeatherCatV1.11B39,2013-03-28 12:48:00,
2013-03-28 08:53:00,40.9,28.9,30.33,NE,39,1.0,3.0,62,0.00,,,0.00,WeatherCatV1.11B39,2013-03-28 12:53:00,
2013-03-28 08:59:00,41.6,28.3,30.33,NE,39,0.0,3.0,59,0.00,,,0.00,WeatherCatV1.11B39,2013-03-28 12:59:00,
2013-03-28 09:04:00,41.7,27.6,30.33,NNE,18,4.0,5.0,57,0.00,,,0.00,WeatherCatV1.11B39,2013-03-28 13:04:00,
2013-03-28 09:09:00,41.8,27.3,30.33,NNE,18,1.0,3.0,56,0.00,,,0.00,WeatherCatV1.11B39,2013-03-28 13:09:00,
2013-03-28 09:14:00,41.7,26.7,30.33,North,355,2.0,3.0,55,0.00,,,0.00,WeatherCatV1.11B39,2013-03-28 13:14:00,
2013-03-28 09:19:00,41.8,27.3,30.33,NNE,17,1.0,4.0,56,0.00,,,0.00,WeatherCatV1.11B39,2013-03-28 13:19:00,
2013-03-28 09:24:00,42.3,27.3,30.33,NNE,23,1.0,4.0,55,0.00,,,0.00,WeatherCatV1.11B39,2013-03-28 13:24:00,
2013-03-28 09:29:00,42.8,27.3,30.33,NNE,24,2.0,3.0,54,0.00,,,0.00,WeatherCatV1.11B39,2013-03-28 13:29:00,
2013-03-28 09:34:00,43.1,26.7,30.34,East,90,2.0,5.0,52,0.00,,,0.00,WeatherCatV1.11B39,2013-03-28 13:34:00,
2013-03-28 09:39:00,43.5,26.6,30.34,ENE,59,3.0,7.0,51,0.00,,,0.00,WeatherCatV1.11B39,2013-03-28 13:39:00,
2013-03-28 09:44:00,43.8,26.4,30.34,NE,51,4.0,4.0,50,0.00,,,0.00,WeatherCatV1.11B39,2013-03-28 13:44:00,
2013-03-28 09:49:00,44.3,26.4,30.34,NNW,348,6.0,8.0,49,0.00,,,0.00,WeatherCatV1.11B39,2013-03-28 13:49:00,
2013-03-28 09:54:00,44.8,26.8,30.34,North,350,0.0,3.0,49,0.00,,,0.00,WeatherCatV1.11B39,2013-03-28 13:54:00,
2013-03-28 09:59:00,45.7,27.1,30.34,NE,46,5.0,7.0,48,0.00,,,0.00,WeatherCatV1.11B39,2013-03-28 13:59:00,
2013-03-28 10:04:00,46.4,26.8,30.34,East,88,3.0,6.0,46,0.00,,,0.00,WeatherCatV1.11B39,2013-03-28 14:04:00,
2013-03-28 10:09:00,46.8,26.6,30.34,NNE,16,3.0,5.0,45,0.00,,,0.00,WeatherCatV1.11B39,2013-03-28 14:09:00,
2013-03-28 10:14:00,46.9,26.1,30.34,NE,51,4.0,7.0,44,0.00,,,0.00,WeatherCatV1.11B39,2013-03-28 14:14:00,
2013-03-28 10:19:00,47.1,25.8,30.34,NNE,24,0.0,0.0,43,0.00,,,0.00,WeatherCatV1.11B39,2013-03-28 14:19:00,
2013-03-28 10:24:00,47.5,26.1,30.34,NNE,14,1.0,6.0,43,0.00,,,0.00,WeatherCatV1.11B39,2013-03-28 14:24:00,
2013-03-28 10:29:00,47.7,25.7,30.34,ENE,64,0.0,3.0,42,0.00,,,0.00,WeatherCatV1.11B39,2013-03-28 14:29:00,
2013-03-28 10:34:00,48.4,25.8,30.34,NNE,30,4.0,7.0,41,0.00,,,0.00,WeatherCatV1.11B39,2013-03-28 14:34:00,
2013-03-28 10:39:00,48.5,25.3,30.34,NNW,346,0.0,3.0,40,0.00,,,0.00,WeatherCatV1.11B39,2013-03-28 14:39:00,
2013-03-28 10:44:00,48.7,26.1,30.34,North,11,3.0,5.0,41,0.00,,,0.00,WeatherCatV1.11B39,2013-03-28 14:44:00,
2013-03-28 10:49:00,49.0,24.5,30.34,NNE,23,1.0,6.0,38,0.00,,,0.00,WeatherCatV1.11B39,2013-03-28 14:49:00,
2013-03-28 10:54:00,49.0,25.1,30.34,NNW,330,0.0,4.0,39,0.00,,,0.00,WeatherCatV1.11B39,2013-03-28 14:54:00,
2013-03-28 10:59:00,49.0,25.1,30.34,NW,318,5.0,6.0,39,0.00,,,0.00,WeatherCatV1.11B39,2013-03-28 14:59:00,
2013-03-28 11:04:00,49.1,25.8,30.34,North,355,2.0,3.0,40,0.00,,,0.00,WeatherCatV1.11B39,2013-03-28 15:04:00,
2013-03-28 11:09:00,49.2,25.9,30.34,NNE,28,1.0,2.0,40,0.00,,,0.00,WeatherCatV1.11B39,2013-03-28 15:09:00,
2013-03-28 11:14:00,49.6,25.0,30.34,NW,309,0.0,3.0,38,0.00,,,0.00,WeatherCatV1.11B39,2013-03-28 15:14:00,
2013-03-28 11:19:00,50.3,24.4,30.33,ENE,76,5.0,8.0,36,0.00,,,0.00,WeatherCatV1.11B39,2013-03-28 15:19:00,
2013-03-28 11:24:00,50.7,26.7,30.33,SE,134,3.0,5.0,39,0.00,,,0.00,WeatherCatV1.11B39,2013-03-28 15:24:00,
2013-03-28 11:29:00,51.8,26.4,30.33,North,349,7.0,7.0,37,0.00,,,0.00,WeatherCatV1.11B39,2013-03-28 15:29:00,
2013-03-28 11:34:00,51.6,25.5,30.33,ENE,72,4.0,9.0,36,0.00,,,0.00,WeatherCatV1.11B39,2013-03-28 15:34:00,
2013-03-28 11:39:00,51.8,25.0,30.33,NW,314,4.0,6.0,35,0.00,,,0.00,WeatherCatV1.11B39,2013-03-28 15:39:00,
2013-03-28 11:44:00,52.3,25.5,30.33,NNW,333,0.0,5.0,35,0.00,,,0.00,WeatherCatV1.11B39,2013-03-28 15:44:00,
2013-03-28 11:49:00,51.2,24.5,30.33,NNW,346,1.0,5.0,35,0.00,,,0.00,WeatherCatV1.11B39,2013-03-28 15:49:00,
2013-03-28 11:54:00,51.4,24.7,30.33,SW,234,0.0,1.0,35,0.00,,,0.00,WeatherCatV1.11B39,2013-03-28 15:54:00,
2013-03-28 11:59:00,52.3,25.5,30.33,North,0,3.0,9.0,35,0.00,,,0.00,WeatherCatV1.11B39,2013-03-28 15:59:00,
2013-03-28 12:04:00,52.2,25.4,30.32,ENE,66,1.0,3.0,35,0.00,,,0.00,WeatherCatV1.11B39,2013-03-28 16:04:00,
2013-03-28 12:10:00,52.5,25.6,30.32,WSW,246,2.0,12.0,35,0.00,,,0.00,WeatherCatV1.11B39,2013-03-28 16:10:00,
2013-03-28 12:15:00,52.1,24.6,30.32,North,355,2.0,5.0,34,0.00,,,0.00,WeatherCatV1.11B39,2013-03-28 16:15:00,
2013-03-28 12:20:00,53.4,27.1,30.32,West,277,5.0,9.0,36,0.00,,,0.00,WeatherCatV1.11B39,2013-03-28 16:20:00,
2013-03-28 12:25:00,54.2,26.5,30.32,SW,236,5.0,10.0,34,0.00,,,0.00,WeatherCatV1.11B39,2013-03-28 16:25:00,
2013-03-28 12:30:00,54.2,25.0,30.32,West,266,2.0,6.0,32,0.00,,,0.00,WeatherCatV1.11B39,2013-03-28 16:30:00,
2013-03-28 12:35:00,55.0,26.4,30.31,WNW,282,2.0,5.0,33,0.00,,,0.00,WeatherCatV1.11B39,2013-03-28 16:35:00,
2013-03-28 12:40:00,54.1,24.9,30.31,West,281,1.0,6.0,32,0.00,,,0.00,WeatherCatV1.11B39,2013-03-28 16:40:00,
2013-03-28 12:45:00,53.9,26.9,30.31,West,259,4.0,6.0,35,0.00,,,0.00,WeatherCatV1.11B39,2013-03-28 16:45:00,
2013-03-28 12:50:00,54.2,25.7,30.31,WNW,300,3.0,5.0,33,0.00,,,0.00,WeatherCatV1.11B39,2013-03-28 16:50:00,
2013-03-28 12:55:00,55.1,25.8,30.31,West,275,2.0,4.0,32,0.00,,,0.00,WeatherCatV1.11B39,2013-03-28 16:55:00,
2013-03-28 13:00:00,55.5,24.6,30.30,WSW,257,0.0,3.0,30,0.00,,,0.00,WeatherCatV1.11B39,2013-03-28 17:00:00,
2013-03-28 13:05:00,55.2,25.9,30.30,WSW,244,0.0,0.0,32,0.00,,,0.00,WeatherCatV1.11B39,2013-03-28 17:05:00,
2013-03-28 13:10:00,55.9,24.9,30.30,WSW,257,9.0,11.0,30,0.00,,,0.00,WeatherCatV1.11B39,2013-03-28 17:10:00,
2013-03-28 13:15:00,56.3,25.3,30.30,NW,321,0.0,4.0,30,0.00,,,0.00,WeatherCatV1.11B39,2013-03-28 17:15:00,
2013-03-28 13:20:00,56.1,23.5,30.30,WNW,290,8.0,14.0,28,0.00,,,0.00,WeatherCatV1.11B39,2013-03-28 17:20:00,
2013-03-28 13:25:00,55.3,23.6,30.29,North,11,4.0,6.0,29,0.00,,,0.00,WeatherCatV1.11B39,2013-03-28 17:25:00,
2013-03-28 13:30:00,56.2,24.4,30.29,NW,305,0.0,4.0,29,0.00,,,0.00,WeatherCatV1.11B39,2013-03-28 17:30:00,
2013-03-28 13:35:00,57.2,26.1,30.29,West,276,5.0,9.0,30,0.00,,,0.00,WeatherCatV1.11B39,2013-03-28 17:35:00,
2013-03-28 13:40:00,58.1,26.0,30.29,WNW,299,1.0,5.0,29,0.00,,,0.00,WeatherCatV1.11B39,2013-03-28 17:40:00,
2013-03-28 13:45:00,57.6,25.6,30.28,NNE,19,6.0,9.0,29,0.00,,,0.00,WeatherCatV1.11B39,2013-03-28 17:45:00,
2013-03-28 13:50:00,57.2,25.2,30.28,NNW,339,9.0,10.0,29,0.00,,,0.00,WeatherCatV1.11B39,2013-03-28 17:50:00,
2013-03-28 13:55:00,57.9,25.0,30.28,North,350,2.0,8.0,28,0.00,,,0.00,WeatherCatV1.11B39,2013-03-28 17:55:00,
2013-03-28 14:00:00,58.6,25.6,30.28,West,271,7.0,12.0,28,0.00,,,0.00,WeatherCatV1.11B39,2013-03-28 18:00:00,
2013-03-28 14:05:00,57.4,23.7,30.27,West,261,0.0,5.0,27,0.00,,,0.00,WeatherCatV1.11B39,2013-03-28 18:05:00,
2013-03-28 14:10:00,58.7,26.5,30.27,WSW,247,0.0,5.0,29,0.00,,,0.00,WeatherCatV1.11B39,2013-03-28 18:10:00,
2013-03-28 14:15:00,58.1,25.2,30.27,SE,130,5.0,5.0,28,0.00,,,0.00,WeatherCatV1.11B39,2013-03-28 18:15:00,
2013-03-28 14:20:00,59.0,24.2,30.27,SW,233,0.0,6.0,26,0.00,,,0.00,WeatherCatV1.11B39,2013-03-28 18:20:00,
2013-03-28 14:25:00,59.0,24.2,30.27,NNW,329,5.0,10.0,26,0.00,,,0.00,WeatherCatV1.11B39,2013-03-28 18:25:00,
2013-03-28 14:30:00,59.0,25.1,30.26,WNW,299,6.0,11.0,27,0.00,,,0.00,WeatherCatV1.11B39,2013-03-28 18:30:00,
2013-03-28 14:35:00,59.0,25.9,30.26,North,350,8.0,9.0,28,0.00,,,0.00,WeatherCatV1.11B39,2013-03-28 18:35:00,
2013-03-28 14:40:00,59.0,24.2,30.26,West,272,1.0,7.0,26,0.00,,,0.00,WeatherCatV1.11B39,2013-03-28 18:40:00,
2013-03-28 14:45:00,59.0,25.1,30.26,West,270,4.0,9.0,27,0.00,,,0.00,WeatherCatV1.11B39,2013-03-28 18:45:00,
2013-03-28 14:50:00,59.9,23.0,30.25,NW,324,10.0,10.0,24,0.00,,,0.00,WeatherCatV1.11B39,2013-03-28 18:50:00,
2013-03-28 14:55:00,59.9,23.0,30.25,NE,42,2.0,9.0,24,0.00,,,0.00,WeatherCatV1.11B39,2013-03-28 18:55:00,
2013-03-28 15:00:00,60.8,24.8,30.25,NW,325,4.0,5.0,25,0.00,,,0.00,WeatherCatV1.11B39,2013-03-28 19:00:00,
2013-03-28 15:05:00,60.9,22.9,30.24,WNW,293,6.0,15.0,23,0.00,,,0.00,WeatherCatV1.11B39,2013-03-28 19:05:00,
2013-03-28 15:10:00,59.9,23.0,30.24,WNW,297,4.0,12.0,24,0.00,,,0.00,WeatherCatV1.11B39,2013-03-28 19:10:00,
2013-03-28 15:15:00,60.0,23.1,30.24,West,274,5.0,7.0,24,0.00,,,0.00,WeatherCatV1.11B39,2013-03-28 19:15:00,
2013-03-28 15:20:00,60.5,21.5,30.24,WNW,295,8.0,8.0,22,0.00,,,0.00,WeatherCatV1.11B39,2013-03-28 19:20:00,
2013-03-28 15:25:00,61.2,22.1,30.23,NNW,333,0.0,8.0,22,0.00,,,0.00,WeatherCatV1.11B39,2013-03-28 19:25:00,
2013-03-28 15:31:00,61.0,21.9,30.23,NNW,345,5.0,10.0,22,0.00,,,0.00,WeatherCatV1.11B39,2013-03-28 19:31:00,
2013-03-28 15:36:00,61.2,23.1,30.23,NW,317,8.0,11.0,23,0.00,,,0.00,WeatherCatV1.11B39,2013-03-28 19:36:00,
2013-03-28 15:41:00,61.3,22.1,30.23,NNW,333,9.0,9.0,22,0.00,,,0.00,WeatherCatV1.11B39,2013-03-28 19:41:00,
2013-03-28 15:46:00,61.6,21.3,30.23,West,271,7.0,8.0,21,0.00,,,0.00,WeatherCatV1.11B39,2013-03-28 19:46:00,
2013-03-28 15:51:00,61.9,21.5,30.23,WNW,291,6.0,13.0,21,0.00,,,0.00,WeatherCatV1.11B39,2013-03-28 19:51:00,
2013-03-28 15:56:00,61.4,22.2,30.22,NW,307,3.0,13.0,22,0.00,,,0.00,WeatherCatV1.11B39,2013-03-28 19:56:00,
2013-03-28 16:01:00,61.8,23.6,30.22,NNW,331,4.0,16.0,23,0.00,,,0.00,WeatherCatV1.11B39,2013-03-28 20:01:00,
2013-03-28 16:06:00,61.9,21.5,30.22,NW,323,0.0,14.0,21,0.00,,,0.00,WeatherCatV1.11B39,2013-03-28 20:06:00,
2013-03-28 16:11:00,62.0,21.6,30.22,WNW,302,6.0,9.0,21,0.00,,,0.00,WeatherCatV1.11B39,2013-03-28 20:11:00,
2013-03-28 16:16:00,62.3,21.9,30.22,NNW,335,2.0,10.0,21,0.00,,,0.00,WeatherCatV1.11B39,2013-03-28 20:16:00,
2013-03-28 16:21:00,62.3,21.9,30.22,NNW,334,4.0,13.0,21,0.00,,,0.00,WeatherCatV1.11B39,2013-03-28 20:21:00,
2013-03-28 16:26:00,62.7,22.2,30.21,North,11,4.0,12.0,21,0.00,,,0.00,WeatherCatV1.11B39,2013-03-28 20:26:00,
2013-03-28 16:31:00,61.9,21.5,30.21,NNW,344,3.0,10.0,21,0.00,,,0.00,WeatherCatV1.11B39,2013-03-28 20:31:00,
2013-03-28 16:36:00,61.6,22.4,30.21,West,271,5.0,11.0,22,0.00,,,0.00,WeatherCatV1.11B39,2013-03-28 20:36:00,
2013-03-28 16:41:00,62.3,21.9,30.21,NNW,348,6.0,7.0,21,0.00,,,0.00,WeatherCatV1.11B39,2013-03-28 20:41:00,
2013-03-28 16:46:00,63.0,23.6,30.21,NNW,337,9.0,17.0,22,0.00,,,0.00,WeatherCatV1.11B39,2013-03-28 20:46:00,
2013-03-28 16:51:00,62.2,22.9,30.21,NW,313,4.0,7.0,22,0.00,,,0.00,WeatherCatV1.11B39,2013-03-28 20:51:00,
2013-03-28 16:56:00,62.3,23.0,30.20,North,350,1.0,9.0,22,0.00,,,0.00,WeatherCatV1.11B39,2013-03-28 20:56:00,
2013-03-28 17:01:00,62.8,23.4,30.20,NW,316,6.0,12.0,22,0.00,,,0.00,WeatherCatV1.11B39,2013-03-28 21:01:00,
2013-03-28 17:06:00,62.5,23.1,30.20,West,281,10.0,12.0,22,0.00,,,0.00,WeatherCatV1.11B39,2013-03-28 21:06:00,
2013-03-28 17:11:00,62.2,24.0,30.20,NW,321,8.0,13.0,23,0.00,,,0.00,WeatherCatV1.11B39,2013-03-28 21:11:00,
2013-03-28 17:16:00,62.4,23.1,30.20,SW,230,3.0,6.0,22,0.00,,,0.00,WeatherCatV1.11B39,2013-03-28 21:16:00,
2013-03-28 17:21:00,63.2,22.6,30.20,West,260,5.0,5.0,21,0.00,,,0.00,WeatherCatV1.11B39,2013-03-28 21:21:00,
2013-03-28 17:26:00,62.7,23.3,30.20,NW,325,10.0,12.0,22,0.00,,,0.00,WeatherCatV1.11B39,2013-03-28 21:26:00,
2013-03-28 17:31:00,62.1,22.8,30.20,NNW,334,6.0,9.0,22,0.00,,,0.00,WeatherCatV1.11B39,2013-03-28 21:31:00,
2013-03-28 17:36:00,61.9,22.6,30.20,NW,320,2.0,6.0,22,0.00,,,0.00,WeatherCatV1.11B39,2013-03-28 21:36:00,
2013-03-28 17:41:00,61.9,23.7,30.20,NNE,22,1.0,5.0,23,0.00,,,0.00,WeatherCatV1.11B39,2013-03-28 21:41:00,
2013-03-28 17:46:00,61.9,23.7,30.20,NW,319,4.0,4.0,23,0.00,,,0.00,WeatherCatV1.11B39,2013-03-28 21:46:00,
2013-03-28 17:51:00,62.0,23.8,30.20,North,5,1.0,6.0,23,0.00,,,0.00,WeatherCatV1.11B39,2013-03-28 21:51:00,
2013-03-28 17:56:00,61.9,23.7,30.20,East,80,6.0,8.0,23,0.00,,,0.00,WeatherCatV1.11B39,2013-03-28 21:56:00,
2013-03-28 18:02:00,61.6,23.4,30.20,NNW,342,6.0,10.0,23,0.00,,,0.00,WeatherCatV1.11B39,2013-03-28 22:02:00,
2013-03-28 18:07:00,61.6,23.4,30.20,NNE,24,2.0,7.0,23,0.00,,,0.00,WeatherCatV1.11B39,2013-03-28 22:07:00,
2013-03-28 18:12:00,61.5,23.4,30.20,WNW,290,2.0,6.0,23,0.00,,,0.00,WeatherCatV1.11B39,2013-03-28 22:12:00,
2013-03-28 18:17:00,61.4,23.3,30.20,WNW,303,4.0,4.0,23,0.00,,,0.00,WeatherCatV1.11B39,2013-03-28 22:17:00,
2013-03-28 18:22:00,61.3,23.2,30.20,North,11,0.0,4.0,23,0.00,,,0.00,WeatherCatV1.11B39,2013-03-28 22:22:00,
2013-03-28 18:27:00,61.2,24.1,30.20,North,10,0.0,5.0,24,0.00,,,0.00,WeatherCatV1.11B39,2013-03-28 22:27:00,
2013-03-28 18:32:00,61.1,24.0,30.20,NNE,13,0.0,3.0,24,0.00,,,0.00,WeatherCatV1.11B39,2013-03-28 22:32:00,
2013-03-28 18:37:00,61.0,26.8,30.20,NE,37,1.0,4.0,27,0.00,,,0.00,WeatherCatV1.11B39,2013-03-28 22:37:00,
2013-03-28 18:42:00,60.7,24.7,30.20,NNW,338,5.0,5.0,25,0.00,,,0.00,WeatherCatV1.11B39,2013-03-28 22:42:00,
2013-03-28 18:47:00,60.6,24.6,30.20,NNE,14,1.0,3.0,25,0.00,,,0.00,WeatherCatV1.11B39,2013-03-28 22:47:00,
2013-03-28 18:52:00,60.5,23.5,30.20,NNE,14,0.0,1.0,24,0.00,,,0.00,WeatherCatV1.11B39,2013-03-28 22:52:00,
2013-03-28 18:57:00,60.5,24.5,30.20,NNE,14,3.0,3.0,25,0.00,,,0.00,WeatherCatV1.11B39,2013-03-28 22:57:00,
2013-03-28 19:02:00,60.3,27.1,30.20,NNE,14,1.0,3.0,28,0.00,,,0.00,WeatherCatV1.11B39,2013-03-28 23:02:00,
2013-03-28 19:07:00,59.9,31.5,30.20,NNE,14,0.0,0.0,34,0.00,,,0.00,WeatherCatV1.11B39,2013-03-28 23:07:00,
2013-03-28 19:12:00,59.3,31.7,30.21,NNE,14,0.0,1.0,35,0.00,,,0.00,WeatherCatV1.11B39,2013-03-28 23:12:00,
2013-03-28 19:17:00,59.0,25.9,30.21,NNE,14,0.0,1.0,28,0.00,,,0.00,WeatherCatV1.11B39,2013-03-28 23:17:00,
2013-03-28 19:22:00,58.3,30.1,30.21,NNE,14,0.0,1.0,34,0.00,,,0.00,WeatherCatV1.11B39,2013-03-28 23:22:00,
2013-03-28 19:27:00,57.6,26.4,30.21,NNE,13,1.0,3.0,30,0.00,,,0.00,WeatherCatV1.11B39,2013-03-28 23:27:00,
2013-03-28 19:32:00,57.1,26.0,30.21,NNE,13,0.0,0.0,30,0.00,,,0.00,WeatherCatV1.11B39,2013-03-28 23:32:00,
2013-03-28 19:37:00,56.6,27.1,30.21,NNE,13,0.0,0.0,32,0.00,,,0.00,WeatherCatV1.11B39,2013-03-28 23:37:00,
2013-03-28 19:42:00,56.0,26.6,30.21,NNE,13,0.0,0.0,32,0.00,,,0.00,WeatherCatV1.11B39,2013-03-28 23:42:00,
2013-03-28 19:47:00,55.4,28.2,30.21,NNE,13,0.0,0.0,35,0.00,,,0.00,WeatherCatV1.11B39,2013-03-28 23:47:00,
2013-03-28 19:52:00,54.7,26.9,30.21,NNE,13,0.0,0.0,34,0.00,,,0.00,WeatherCatV1.11B39,2013-03-28 23:52:00,
2013-03-28 19:57:00,54.0,28.3,30.21,NNE,13,0.0,0.0,37,0.00,,,0.00,WeatherCatV1.11B39,2013-03-28 23:57:00,
2013-03-28 20:02:00,53.4,26.4,30.22,NNE,13,0.0,0.0,35,0.00,,,0.00,WeatherCatV1.11B39,2013-03-29 00:02:00,
2013-03-28 20:07:00,52.8,26.6,30.22,NNE,13,0.0,0.0,36,0.00,,,0.00,WeatherCatV1.11B39,2013-03-29 00:07:00,
2013-03-28 20:12:00,52.4,25.6,30.22,NNE,13,0.0,1.0,35,0.00,,,0.00,WeatherCatV1.11B39,2013-03-29 00:12:00,
2013-03-28 20:17:00,52.0,28.4,30.22,NNE,13,0.0,1.0,40,0.00,,,0.00,WeatherCatV1.11B39,2013-03-29 00:17:00,
2013-03-28 20:22:00,51.5,27.4,30.22,NNE,13,0.0,1.0,39,0.00,,,0.00,WeatherCatV1.11B39,2013-03-29 00:22:00,
2013-03-28 20:27:00,51.2,28.9,30.22,NNE,13,0.0,1.0,42,0.00,,,0.00,WeatherCatV1.11B39,2013-03-29 00:27:00,
2013-03-28 20:32:00,50.8,29.7,30.22,NNE,13,0.0,0.0,44,0.00,,,0.00,WeatherCatV1.11B39,2013-03-29 00:32:00,
2013-03-28 20:37:00,50.4,28.2,30.22,NNE,13,0.0,1.0,42,0.00,,,0.00,WeatherCatV1.11B39,2013-03-29 00:37:00,
2013-03-28 20:42:00,50.1,28.5,30.22,NNE,13,0.0,0.0,43,0.00,,,0.00,WeatherCatV1.11B39,2013-03-29 00:42:00,
2013-03-28 20:47:00,49.8,28.2,30.22,NNE,13,0.0,0.0,43,0.00,,,0.00,WeatherCatV1.11B39,2013-03-29 00:47:00,
2013-03-28 20:52:00,49.6,28.0,30.23,NNE,13,0.0,0.0,43,0.00,,,0.00,WeatherCatV1.11B39,2013-03-29 00:52:00,
2013-03-28 20:57:00,49.4,29.5,30.23,NNE,13,1.0,1.0,46,0.00,,,0.00,WeatherCatV1.11B39,2013-03-29 00:57:00,
2013-03-28 21:02:00,49.2,29.3,30.23,NNE,13,0.0,2.0,46,0.00,,,0.00,WeatherCatV1.11B39,2013-03-29 01:02:00,
2013-03-28 21:07:00,49.0,29.1,30.23,NNE,13,1.0,1.0,46,0.00,,,0.00,WeatherCatV1.11B39,2013-03-29 01:07:00,
2013-03-28 21:12:00,48.9,29.6,30.23,NNE,13,0.0,2.0,47,0.00,,,0.00,WeatherCatV1.11B39,2013-03-29 01:12:00,
2013-03-28 21:17:00,48.7,29.9,30.23,NNE,13,0.0,1.0,48,0.00,,,0.00,WeatherCatV1.11B39,2013-03-29 01:17:00,
2013-03-28 21:22:00,48.6,30.3,30.24,NNE,13,0.0,2.0,49,0.00,,,0.00,WeatherCatV1.11B39,2013-03-29 01:22:00,
2013-03-28 21:28:00,48.3,30.5,30.24,NNE,13,1.0,3.0,50,0.00,,,0.00,WeatherCatV1.11B39,2013-03-29 01:28:00,
2013-03-28 21:33:00,48.1,30.8,30.24,NNE,13,0.0,1.0,51,0.00,,,0.00,WeatherCatV1.11B39,2013-03-29 01:33:00,
2013-03-28 21:38:00,47.9,30.7,30.24,NNE,13,1.0,2.0,51,0.00,,,0.00,WeatherCatV1.11B39,2013-03-29 01:38:00,
2013-03-28 21:43:00,47.7,30.9,30.24,NNE,13,0.0,2.0,52,0.00,,,0.00,WeatherCatV1.11B39,2013-03-29 01:43:00,
2013-03-28 21:48:00,47.5,29.8,30.25,NNE,13,0.0,0.0,50,0.00,,,0.00,WeatherCatV1.11B39,2013-03-29 01:48:00,
2013-03-28 21:53:00,47.3,29.1,30.25,NNE,13,0.0,0.0,49,0.00,,,0.00,WeatherCatV1.11B39,2013-03-29 01:53:00,
2013-03-28 21:58:00,47.2,30.0,30.25,NNE,13,0.0,1.0,51,0.00,,,0.00,WeatherCatV1.11B39,2013-03-29 01:58:00,
2013-03-28 22:03:00,46.9,30.2,30.25,NNE,13,0.0,1.0,52,0.00,,,0.00,WeatherCatV1.11B39,2013-03-29 02:03:00,
2013-03-28 22:08:00,46.7,29.5,30.25,NNE,13,0.0,1.0,51,0.00,,,0.00,WeatherCatV1.11B39,2013-03-29 02:08:00,
2013-03-28 22:13:00,46.6,29.9,30.25,NNE,13,2.0,2.0,52,0.00,,,0.00,WeatherCatV1.11B39,2013-03-29 02:13:00,
2013-03-28 22:18:00,46.4,29.7,30.25,NNE,13,0.0,2.0,52,0.00,,,0.00,WeatherCatV1.11B39,2013-03-29 02:18:00,
2013-03-28 22:23:00,46.2,31.4,30.26,NNE,13,2.0,3.0,56,0.00,,,0.00,WeatherCatV1.11B39,2013-03-29 02:23:00,
2013-03-28 22:28:00,46.0,31.2,30.26,NNE,12,1.0,2.0,56,0.00,,,0.00,WeatherCatV1.11B39,2013-03-29 02:28:00,
2013-03-28 22:33:00,45.8,31.0,30.26,NNW,333,3.0,4.0,56,0.00,,,0.00,WeatherCatV1.11B39,2013-03-29 02:33:00,
2013-03-28 22:38:00,45.7,30.9,30.26,NW,326,1.0,3.0,56,0.00,,,0.00,WeatherCatV1.11B39,2013-03-29 02:38:00,
2013-03-28 22:43:00,45.7,30.5,30.26,NW,309,3.0,3.0,55,0.00,,,0.00,WeatherCatV1.11B39,2013-03-29 02:43:00,
2013-03-28 22:48:00,45.7,30.9,30.27,NW,309,3.0,3.0,56,0.00,,,0.00,WeatherCatV1.11B39,2013-03-29 02:48:00,
2013-03-28 22:53:00,45.5,30.7,30.27,NW,309,3.0,4.0,56,0.00,,,0.00,WeatherCatV1.11B39,2013-03-29 02:53:00,
2013-03-28 22:58:00,45.3,30.1,30.27,NW,306,0.0,3.0,55,0.00,,,0.00,WeatherCatV1.11B39,2013-03-29 02:58:00,
2013-03-28 23:03:00,45.2,29.1,30.27,NW,306,0.0,0.0,53,0.00,,,0.00,WeatherCatV1.11B39,2013-03-29 03:03:00,
2013-03-28 23:08:00,45.3,29.6,30.27,NW,306,0.0,0.0,54,0.00,,,0.00,WeatherCatV1.11B39,2013-03-29 03:08:00,
2013-03-28 23:13:00,45.3,29.6,30.27,NW,306,0.0,1.0,54,0.00,,,0.00,WeatherCatV1.11B39,2013-03-29 03:13:00,
2013-03-28 23:18:00,45.4,29.7,30.27,NW,306,4.0,4.0,54,0.00,,,0.00,WeatherCatV1.11B39,2013-03-29 03:18:00,
2013-03-28 23:23:00,45.3,29.6,30.27,NW,304,1.0,3.0,54,0.00,,,0.00,WeatherCatV1.11B39,2013-03-29 03:23:00,
2013-03-28 23:28:00,45.2,30.4,30.27,NW,304,0.0,0.0,56,0.00,,,0.00,WeatherCatV1.11B39,2013-03-29 03:28:00,
2013-03-28 23:33:00,45.0,31.1,30.27,NW,304,0.0,4.0,58,0.00,,,0.00,WeatherCatV1.11B39,2013-03-29 03:33:00,
2013-03-28 23:38:00,44.6,30.3,30.27,WNW,303,0.0,0.0,57,0.00,,,0.00,WeatherCatV1.11B39,2013-03-29 03:38:00,
2013-03-28 23:43:00,44.3,30.0,30.27,NE,42,0.0,1.0,57,0.00,,,0.00,WeatherCatV1.11B39,2013-03-29 03:43:00,
2013-03-28 23:48:00,43.8,30.4,30.27,NE,42,0.0,1.0,59,0.00,,,0.00,WeatherCatV1.11B39,2013-03-29 03:48:00,
2013-03-28 23:53:00,43.3,29.9,30.28,NE,42,0.0,1.0,59,0.00,,,0.00,WeatherCatV1.11B39,2013-03-29 03:53:00,
2013-03-28 23:58:00,42.9,30.0,30.27,NE,40,0.0,3.0,60,0.00,,,0.00,WeatherCatV1.11B39,2013-03-29 03:58:00,